Terug naar catalogus

AMOS 4

ActiefCommunicatieGEO
NORAD 39237·PAYLOAD·🇮🇱 Israel

Gelanceerd Aug 31, 2013 vanaf Baikonur Cosmodrome

Loading…

TLE

VersSource: Space-Track

Epoch: Sep 14, 2026, 14:06 UTC

1 39237U 13045A   26257.58801440 -.00000001  00000-0  00000-0 0  9991
2 39237   0.0403 253.4324 0001155 267.9485 108.8956  1.00272612 47851

Volg AMOS 4 in realtime met AllMySat

Download on the App Store